User: anonymous   Login
Location: Muenchen
(48.1800°N, 11.5800°E)
Time: 22:45:08
(UTC+02:00)
Language:

ISS - Orbit

View from above orbital plane
View from above orbital plane
View from above satellite
View from above satellite

Ground track
Ground track

The orbit data is extracted from the following two-line orbital elements,

1 25544U 98067A   16178.58938568  .00016717  00000-0  10270-3 0  9046
2 25544  51.6405  11.1293 0000824 349.8597  10.2539 15.54676338  6441
Epoch (UTC): 26 June 2016 14:08:42
Eccentricity: 0.0000824
inclination: 51.6405°
perigee height: 402 km
apogee height: 403 km
right ascension of ascending node: 11.1293°
argument of perigee: 349.8597°
revolutions per day: 15.54676338
mean anomaly at epoch: 10.2539°
orbit number at epoch: 644

The dashed part of the orbit path shows where the satellite is in the earth's shadow,  

DLR